| time (UTC) | temp F | wind direction | speed MPH | gust MPH | rain 1hr in | rain 24hr in | rain mn in | humidity % | barometer mb |
| 20260506211019 | 47 | 0.0 | 5.0 | 0.00 | 0.00 | 0.00 | 46 | 1013.1 | |
| 20260506210019 | 47 | 0.0 | 4.0 | 0.00 | 0.00 | 0.00 | 47 | 1013.1 | |
| 20260506205036 | 48 | 0.0 | 0.0 | 0.00 | 0.00 | 0.00 | 48 | 1013.3 | |
| 20260506204027 | 47 | 203 | 1.0 | 8.0 | 0.00 | 0.00 | 0.00 | 46 | 1013.3 |
| 20260506203018 | 48 | 0.0 | 4.0 | 0.00 | 0.00 | 0.00 | 48 | 1013.2 | |
| 20260506202018 | 48 | 0.0 | 3.0 | 0.00 | 0.00 | 0.00 | 48 | 1013.2 | |
| 20260506201018 | 49 | 0.0 | 6.0 | 0.00 | 0.00 | 0.00 | 45 | 1013.3 | |
| 20260506200019 | 49 | 0.0 | 2.0 | 0.00 | 0.00 | 0.00 | 48 | 1013.4 | |
| 20260506195018 | 49 | 225 | 1.0 | 6.0 | 0.00 | 0.00 | 0.00 | 45 | 1013.4 |
| 20260506194047 | 49 | 0.0 | 3.0 | 0.00 | 0.00 | 0.00 | 45 | 1013.3 | |
| 20260506193021 | 49 | 0.0 | 5.0 | 0.00 | 0.00 | 0.00 | 48 | 1013.3 | |
| 20260506192018 | 50 | 0.0 | 4.0 | 0.00 | 0.00 | 0.00 | 45 | 1013.4 | |
| 20260506191020 | 51 | 0.0 | 3.0 | 0.00 | 0.00 | 0.00 | 45 | 1013.3 | |
| 20260506190038 | 51 | 0.0 | 2.0 | 0.00 | 0.00 | 0.00 | 43 | 1013.5 | |
| 20260506185018 | 52 | 68 | 1.0 | 8.0 | 0.00 | 0.00 | 0.00 | 48 | 1013.6 |
| 20260506184018 | 51 | 225 | 1.0 | 5.0 | 0.00 | 0.00 | 0.00 | 47 | 1013.4 |
| 20260506183047 | 51 | 23 | 1.0 | 5.0 | 0.00 | 0.00 | 0.00 | 44 | 1013.6 |
| 20260506182027 | 52 | 0.0 | 2.0 | 0.00 | 0.00 | 0.00 | 49 | 1013.6 | |
| 20260506181056 | 50 | 68 | 1.0 | 9.0 | 0.00 | 0.00 | 0.00 | 50 | 1013.4 |
| 20260506180018 | 49 | 0.0 | 3.0 | 0.00 | 0.00 | 0.00 | 48 | 1013.5 | |
| 20260506175044 | 50 | 0.0 | 5.0 | 0.00 | 0.00 | 0.00 | 44 | 1013.6 | |
| 20260506174035 | 50 | 0.0 | 4.0 | 0.00 | 0.00 | 0.00 | 44 | 1013.8 | |
| 20260506173018 | 50 | 45 | 1.0 | 5.0 | 0.00 | 0.00 | 0.00 | 47 | 1013.9 |
| 20260506172047 | 50 | 225 | 1.0 | 6.0 | 0.00 | 0.00 | 0.00 | 45 | 1013.9 |
| 20260506171047 | 50 | 225 | 1.0 | 6.0 | 0.00 | 0.00 | 0.00 | 47 | 1014.1 |
| 20260506170029 | 49 | 0.0 | 3.0 | 0.00 | 0.00 | 0.00 | 47 | 1014.1 | |
| 20260506165036 | 48 | 0.0 | 4.0 | 0.00 | 0.00 | 0.00 | 48 | 1014.1 | |
| 20260506164020 | 49 | 0.0 | 4.0 | 0.00 | 0.00 | 0.00 | 48 | 1014.1 | |
| 20260506163029 | 49 | 0.0 | 1.0 | 0.00 | 0.00 | 0.00 | 48 | 1013.9 | |
| 20260506162021 | 49 | 0.0 | 1.0 | 0.00 | 0.00 | 0.00 | 48 | 1014.0 | |
| 20260506161050 | 47 | 0.0 | 5.0 | 0.00 | 0.00 | 0.00 | 49 | 1014.0 | |
| 20260506160020 | 47 | 0.0 | 3.0 | 0.00 | 0.00 | 0.00 | 47 | 1013.9 | |
| 20260506155037 | 48 | 0.0 | 3.0 | 0.00 | 0.00 | 0.00 | 48 | 1014.0 | |
| 20260506154040 | 46 | 0.0 | 4.0 | 0.00 | 0.00 | 0.00 | 50 | 1013.9 | |
| 20260506153020 | 47 | 0.0 | 5.0 | 0.00 | 0.00 | 0.00 | 50 | 1014.0 | |
| 20260506152020 | 47 | 0.0 | 2.0 | 0.00 | 0.00 | 0.00 | 49 | 1013.7 | |
| 20260506151042 | 47 | 0.0 | 2.0 | 0.00 | 0.00 | 0.00 | 53 | 1013.7 | |
| 20260506150018 | 46 | 0.0 | 3.0 | 0.00 | 0.00 | 0.00 | 53 | 1013.8 | |
| 20260506145029 | 45 | 0.0 | 3.0 | 0.00 | 0.00 | 0.00 | 51 | 1013.7 | |
| 20260506144020 | 47 | 0.0 | 3.0 | 0.00 | 0.00 | 0.00 | 51 | 1013.7 | |
| 20260506143046 | 47 | 0.0 | 2.0 | 0.00 | 0.00 | 0.00 | 53 | 1013.7 | |
| 20260506142020 | 47 | 0.0 | 0.0 | 0.00 | 0.00 | 0.00 | 53 | 1013.5 | |
| 20260506141020 | 46 | 0.0 | 2.0 | 0.00 | 0.00 | 0.00 | 52 | 1013.4 | |
| 20260506140020 | 46 | 0.0 | 1.0 | 0.00 | 0.00 | 0.00 | 56 | 1013.4 | |
| 20260506135042 | 45 | 0.0 | 1.0 | 0.00 | 0.00 | 0.00 | 56 | 1013.2 | |
| 20260506134046 | 44 | 0.0 | 1.0 | 0.00 | 0.00 | 0.00 | 58 | 1013.0 | |
| 20260506133020 | 44 | 0.0 | 1.0 | 0.00 | 0.00 | 0.00 | 58 | 1013.2 | |
| 20260506132020 | 42 | 0.0 | 0.0 | 0.00 | 0.00 | 0.00 | 62 | 1013.2 | |
| 20260506131037 | 42 | 0.0 | 3.0 | 0.00 | 0.00 | 0.00 | 64 | 1013.1 | |
| 20260506130019 | 41 | 0.0 | 3.0 | 0.00 | 0.00 | 0.00 | 65 | 1013.0 | |
| 20260506125020 | 40 | 0.0 | 2.0 | 0.00 | 0.00 | 0.00 | 69 | 1013.0 | |
| 20260506124057 | 39 | 0.0 | 0.0 | 0.00 | 0.00 | 0.00 | 73 | 1012.9 | |
| 20260506123020 | 38 | 0.0 | 0.0 | 0.00 | 0.00 | 0.00 | 77 | 1012.9 | |
| 20260506122028 | 37 | 0.0 | 0.0 | 0.00 | 0.00 | 0.00 | 83 | 1012.8 | |
| 20260506121149 | 35 | 0.0 | 0.0 | 0.00 | 0.00 | 0.00 | 87 | 1012.9 | |
| 20260506120040 | 33 | 0.0 | 0.0 | 0.00 | 0.00 | 0.00 | 89 | 1012.5 | |
| 20260506115020 | 31 | 0.0 | 0.0 | 0.00 | 0.00 | 0.00 | 89 | 1012.0 | |
| 20260506114020 | 31 | 0.0 | 0.0 | 0.00 | 0.00 | 0.00 | 90 | 1012.0 | |
| 20260506113020 | 31 | 0.0 | 0.0 | 0.00 | 0.00 | 0.00 | 90 | 1011.8 | |
| 20260506112020 | 31 | 0.0 | 0.0 | 0.00 | 0.00 | 0.00 | 90 | 1011.9 | |
| 20260506111020 | 31 | 0.0 | 0.0 | 0.00 | 0.00 | 0.00 | 90 | 1011.8 | |
| 20260506110027 | 30 | 0.0 | 0.0 | 0.00 | 0.00 | 0.00 | 90 | 1011.8 | |
| 20260506105028 | 30 | 0.0 | 0.0 | 0.00 | 0.00 | 0.00 | 90 | 1011.7 | |
| 20260506104048 | 30 | 0.0 | 0.0 | 0.00 | 0.00 | 0.00 | 90 | 1011.8 | |
| 20260506103020 | 30 | 0.0 | 0.0 | 0.00 | 0.00 | 0.00 | 90 | 1011.6 | |
| 20260506102056 | 29 | 0.0 | 0.0 | 0.00 | 0.00 | 0.00 | 90 | 1011.4 | |
| 20260506101020 | 29 | 0.0 | 0.0 | 0.00 | 0.00 | 0.00 | 90 | 1011.3 | |
| 20260506100033 | 29 | 0.0 | 0.0 | 0.00 | 0.00 | 0.00 | 90 | 1011.3 | |
| 20260506095040 | 29 | 0.0 | 0.0 | 0.00 | 0.00 | 0.00 | 90 | 1011.3 | |
| 20260506094040 | 28 | 0.0 | 0.0 | 0.00 | 0.00 | 0.00 | 90 | 1011.4 | |
| 20260506093028 | 28 | 0.0 | 0.0 | 0.00 | 0.00 | 0.00 | 90 | 1011.1 | |
| 20260506092056 | 27 | 0.0 | 0.0 | 0.00 | 0.00 | 0.00 | 90 | 1011.2 | |
| 20260506091019 | 28 | 0.0 | 0.0 | 0.00 | 0.00 | 0.00 | 90 | 1011.1 | |
| 20260506090019 | 28 | 0.0 | 0.0 | 0.00 | 0.00 | 0.00 | 90 | 1011.1 | |
| 20260506085039 | 28 | 0.0 | 0.0 | 0.00 | 0.00 | 0.00 | 90 | 1011.2 | |
| 20260506084020 | 28 | 0.0 | 0.0 | 0.00 | 0.00 | 0.00 | 90 | 1011.1 | |
| 20260506083100 | 29 | 0.0 | 0.0 | 0.00 | 0.00 | 0.00 | 90 | 1011.0 | |
| 20260506082019 | 29 | 0.0 | 0.0 | 0.00 | 0.00 | 0.00 | 89 | 1010.9 | |
| 20260506081036 | 29 | 0.0 | 0.0 | 0.00 | 0.00 | 0.00 | 90 | 1010.8 | |
| 20260506073019 | 30 | 0.0 | 0.0 | 0.00 | 0.00 | 0.00 | 89 | 1010.8 | |
| 20260506072048 | 31 | 0.0 | 0.0 | 0.00 | 0.00 | 0.00 | 88 | 1010.7 | |
| 20260506071040 | 31 | 0.0 | 0.0 | 0.00 | 0.00 | 0.00 | 88 | 1010.6 | |
| 20260506062028 | 34 | 0.0 | 0.0 | 0.00 | 0.00 | 0.00 | 84 | 1010.8 | |
| 20260506061028 | 34 | 0.0 | 0.0 | 0.00 | 0.00 | 0.00 | 84 | 1010.9 | |
| 20260506051019 | 35 | 0.0 | 0.0 | 0.00 | 0.00 | 0.00 | 82 | 1010.8 | |
| 20260506045019 | 35 | 0.0 | 0.0 | 0.00 | 0.00 | 0.00 | 79 | 1010.6 | |
| 20260506044028 | 36 | 0.0 | 0.0 | 0.00 | 0.00 | 0.00 | 79 | 1010.5 | |
| 20260506043041 | 36 | 0.0 | 0.0 | 0.00 | 0.00 | 0.00 | 78 | 1010.5 | |
| 20260506042019 | 36 | 0.0 | 0.0 | 0.00 | 0.00 | 0.00 | 77 | 1010.5 | |
| 20260506041028 | 37 | 0.0 | 0.0 | 0.00 | 0.00 | 0.00 | 76 | 1010.5 | |
| 20260506040019 | 37 | 0.0 | 0.0 | 0.00 | 0.00 | 0.00 | 76 | 1010.4 | |
| 20260506035044 | 37 | 0.0 | 0.0 | 0.00 | 0.00 | 0.00 | 74 | 1010.3 | |
| 20260506034028 | 37 | 0.0 | 0.0 | 0.00 | 0.00 | 0.00 | 72 | 1010.3 | |
| 20260506033035 | 37 | 0.0 | 0.0 | 0.00 | 0.00 | 0.00 | 73 | 1010.3 | |
| 20260506032018 | 37 | 0.0 | 0.0 | 0.00 | 0.00 | 0.00 | 73 | 1010.3 | |
| 20260506031100 | 37 | 0.0 | 0.0 | 0.00 | 0.00 | 0.00 | 70 | 1010.2 | |
| 20260506030030 | 38 | 0.0 | 0.0 | 0.00 | 0.00 | 0.00 | 68 | 1010.2 | |
| 20260506025019 | 38 | 0.0 | 0.0 | 0.00 | 0.00 | 0.00 | 68 | 1010.2 | |
| 20260506024040 | 39 | 0.0 | 0.0 | 0.00 | 0.00 | 0.00 | 66 | 1010.1 | |
| 20260506023018 | 40 | 0.0 | 0.0 | 0.00 | 0.00 | 0.00 | 65 | 1010.1 | |
| 20260506022018 | 40 | 0.0 | 0.0 | 0.00 | 0.00 | 0.00 | 63 | 1009.8 | |
| 20260506021028 | 41 | 0.0 | 0.0 | 0.00 | 0.00 | 0.00 | 61 | 1009.7 | |
| 20260506020019 | 41 | 0.0 | 0.0 | 0.00 | 0.00 | 0.00 | 59 | 1009.7 | |
| 20260506015028 | 42 | 0.0 | 0.0 | 0.00 | 0.00 | 0.00 | 58 | 1009.6 | |
| 20260506014039 | 43 | 0.0 | 0.0 | 0.00 | 0.00 | 0.00 | 56 | 1009.6 | |
| 20260506013028 | 43 | 0.0 | 0.0 | 0.00 | 0.00 | 0.00 | 56 | 1009.4 | |
| 20260506012018 | 43 | 0.0 | 0.0 | 0.00 | 0.00 | 0.00 | 54 | 1009.4 | |
| 20260506011018 | 44 | 0.0 | 0.0 | 0.00 | 0.00 | 0.00 | 55 | 1009.2 | |
| 20260506010028 | 45 | 0.0 | 0.0 | 0.00 | 0.00 | 0.00 | 53 | 1009.2 | |
| 20260506005039 | 45 | 0.0 | 0.0 | 0.00 | 0.00 | 0.00 | 50 | 1009.1 | |
| 20260506004030 | 45 | 0.0 | 0.0 | 0.00 | 0.00 | 0.00 | 49 | 1009.1 | |
| 20260506003019 | 46 | 0.0 | 0.0 | 0.00 | 0.00 | 0.00 | 50 | 1009.1 | |
| 20260506002019 | 46 | 0.0 | 0.0 | 0.00 | 0.00 | 0.00 | 47 | 1008.8 | |
| 20260506001019 | 47 | 0.0 | 4.0 | 0.00 | 0.00 | 0.00 | 46 | 1008.8 | |
| 20260506000019 | 47 | 0.0 | 1.0 | 0.00 | 0.00 | 0.00 | 44 | 1008.8 | |
| 20260505235019 | 47 | 0.0 | 1.0 | 0.00 | 0.00 | 0.00 | 44 | 1008.7 | |
| 20260505234036 | 47 | 0.0 | 2.0 | 0.00 | 0.00 | 0.00 | 43 | 1008.7 | |
| 20260505233019 | 47 | 0.0 | 2.0 | 0.00 | 0.00 | 0.00 | 43 | 1008.7 | |
| 20260505232019 | 48 | 0.0 | 3.0 | 0.00 | 0.00 | 0.00 | 42 | 1008.7 | |
| 20260505231027 | 49 | 0.0 | 4.0 | 0.00 | 0.00 | 0.00 | 42 | 1008.7 | |
| 20260505230028 | 48 | 0.0 | 2.0 | 0.00 | 0.00 | 0.00 | 41 | 1008.6 | |
| 20260505225039 | 48 | 0.0 | 7.0 | 0.00 | 0.00 | 0.00 | 44 | 1008.7 | |
| 20260505224018 | 49 | 0.0 | 2.0 | 0.00 | 0.00 | 0.00 | 43 | 1008.7 | |
| 20260505223019 | 49 | 0.0 | 6.0 | 0.00 | 0.00 | 0.00 | 42 | 1008.5 | |
| 20260505222020 | 49 | 225 | 1.0 | 6.0 | 0.00 | 0.00 | 0.00 | 40 | 1008.5 |
| 20260505221019 | 49 | 0 | 1.0 | 5.0 | 0.00 | 0.00 | 0.00 | 39 | 1008.4 |
| 20260505220038 | 50 | 0.0 | 1.0 | 0.00 | 0.00 | 0.00 | 38 | 1008.5 | |
| 20260505215027 | 50 | 0.0 | 4.0 | 0.00 | 0.00 | 0.00 | 41 | 1008.4 | |
| 20260505214036 | 50 | 0.0 | 6.0 | 0.00 | 0.00 | 0.00 | 39 | 1008.3 | |
| 20260505213047 | 51 | 0.0 | 3.0 | 0.00 | 0.00 | 0.00 | 40 | 1008.4 | |
| 20260505212018 | 51 | 0.0 | 6.0 | 0.00 | 0.00 | 0.00 | 39 | 1008.3 |